North Las Vegas, NV

9:13 AM PST on February 11, 2016 (GMT -0800)
North Las Vegas

Weather History for KVGT - October, 2012

Change the Weather History Date:

Saturday, October 6, 2012

  Actual Average Record
Temperature  
Mean Temperature 78 °F 73 °F  
Max Temperature 89 °F 84 °F 92 °F (2014)
Min Temperature 69 °F 61 °F 50 °F (2011)
Degree Days  
Heating Degree Days 0 0  
Month to date heating degree days 0  
Since 1 July heating degree days 1  
Cooling Degree Days 13 8  
Month to date cooling degree days 54  
Year to date cooling degree days 3184  
Growing Degree Days 28 (Base 50)    
Moisture  
Dew Point 31 °F    
Average Humidity 20    
Maximum Humidity 32    
Minimum Humidity 10    
Precipitation  
Precipitation 0.00 in 0.02 in 0.22 in (2006)
Month to date precipitation 0.05  
Year to date precipitation 4.01  
Sea Level Pressure  
Sea Level Pressure 29.88 in    
Wind  
Wind Speed 4 mph (NNE)    
Max Wind Speed 9 mph    
Max Gust Speed -    
Visibility 10 miles    
Events      
T = Trace of Precipitation, MM = Missing Value Source: NWS Daily Summary

Daily Weather History Graph

Daily Weather History Graph

Search for Another Location

Airport or City:

Trip Planner

Search our weather history database for the weather conditions in past years. The results will help you decide how hot, cold, wet, or windy it might be!

Date:

Astronomy

Oct. 06, 2012 Rise Set
Actual Time 6:40 AM PDT 6:16 PM PDT
Civil Twilight 6:14 AM PDT 6:42 PM PDT
Nautical Twilight 5:45 AM PDT 7:11 PM PDT
Astronomical Twilight 5:15 AM PDT 7:41 PM PDT
Moon 10:43 PM PDT (10/6) 12:30 PM PDT (10/6)
Length of Visible Light 12h 27m
Length of Day
11h 35m
Waning Gibbous, 64% of the Moon is Illuminated
Oct 6
Waning Gibbous
Oct 8
Last Quarter
Oct 15
New
Oct 21
First Quarter
Oct 29
Full

Hourly Weather History & Observations

Time (PDT) Temp. Dew Point Humidity Pressure Visibility Wind Dir Wind Speed Gust Speed Precip Events Conditions
12:53 AM 71.1 °F 39.0 °F 31% 29.90 in 10.0 mi NW 6.9 mph - N/A   Clear
1:53 AM 71.1 °F 39.0 °F 31% 29.90 in 10.0 mi Calm Calm - N/A   Clear
2:53 AM 69.1 °F 37.9 °F 32% 29.89 in 10.0 mi Calm Calm - N/A   Clear
3:53 AM 69.1 °F 37.0 °F 31% 29.88 in 10.0 mi WNW 3.5 mph - N/A   Clear
4:53 AM 70.0 °F 36.0 °F 29% 29.89 in 10.0 mi Calm Calm - N/A   Clear
5:53 AM 71.1 °F 30.9 °F 23% 29.90 in 10.0 mi North 9.2 mph - N/A   Clear
6:53 AM 69.1 °F 30.9 °F 24% 29.92 in 10.0 mi NW 5.8 mph - N/A   Clear
7:53 AM 71.1 °F 32.0 °F 24% 29.94 in 10.0 mi NW 4.6 mph - N/A   Clear
8:53 AM 75.9 °F 32.0 °F 20% 29.94 in 10.0 mi Calm Calm - N/A   Clear
9:53 AM 78.1 °F 28.9 °F 17% 29.95 in 10.0 mi SE 3.5 mph - N/A   Clear
10:53 AM 82.9 °F 25.0 °F 12% 29.93 in 10.0 mi Calm Calm - N/A   Clear
11:53 AM 84.0 °F 25.0 °F 12% 29.92 in 10.0 mi ESE 6.9 mph - N/A   Clear
12:53 PM 84.9 °F 24.1 °F 11% 29.90 in 10.0 mi ESE 9.2 mph - N/A   Clear
1:53 PM 84.9 °F 24.1 °F 11% 29.87 in 10.0 mi ESE 6.9 mph - N/A   Clear
2:53 PM 86.0 °F 25.0 °F 11% 29.86 in 10.0 mi ESE 9.2 mph - N/A   Clear
3:53 PM 87.1 °F 25.0 °F 10% 29.84 in 10.0 mi East 6.9 mph - N/A   Clear
4:53 PM 87.1 °F 25.0 °F 10% 29.82 in 10.0 mi East 3.5 mph - N/A   Clear
5:53 PM 84.9 °F 26.1 °F 12% 29.81 in 10.0 mi Calm Calm - N/A   Clear
6:53 PM 82.9 °F 27.0 °F 13% 29.82 in 10.0 mi Calm Calm - N/A   Clear
7:53 PM 82.0 °F 28.9 °F 14% 29.83 in 10.0 mi Calm Calm - N/A   Clear
8:53 PM 77.0 °F 34.0 °F 21% 29.84 in 10.0 mi NW 3.5 mph - N/A   Clear
9:53 PM 75.9 °F 34.0 °F 22% 29.84 in 10.0 mi WSW 3.5 mph - N/A   Clear
10:53 PM 72.0 °F 35.1 °F 26% 29.84 in 10.0 mi NNE 3.5 mph - N/A   Clear
11:53 PM 72.0 °F 34.0 °F 25% 29.85 in 10.0 mi NW 3.5 mph - N/A   Clear